TimeMST,TemperatureF,Dew PointF,Humidity,Sea Level PressureIn,VisibilityMPH,Wind Direction,Wind SpeedMPH,Gust SpeedMPH,PrecipitationIn,Events,Conditions,WindDirDegrees,DateUTC
12:02 AM,23.0,19.4,86,29.44,2.5,WNW,21.9,-,0.00,Snow,Light Snow,300,2013-01-11 07:02:00
12:11 AM,23.0,19.4,86,29.45,1.2,WNW,18.4,-,0.00,Snow,Light Snow,300,2013-01-11 07:11:00
12:42 AM,21.2,17.6,86,29.45,0.8,NW,23.0,-,0.00,Snow,Light Snow,310,2013-01-11 07:42:00
12:53 AM,21.0,17.1,85,29.52,1.0,WNW,19.6,-,0.00,Snow,Light Snow,300,2013-01-11 07:53:00
1:08 AM,21.2,17.6,86,29.46,1.2,WNW,17.3,-,0.00,Snow,Light Snow,300,2013-01-11 08:08:00
1:39 AM,19.4,17.6,93,29.46,1.8,WNW,19.6,-,0.00,Snow,Light Snow,300,2013-01-11 08:39:00
1:47 AM,19.4,15.8,86,29.46,3.0,WNW,24.2,-,0.00,Snow,Light Snow,300,2013-01-11 08:47:00
2:14 AM,19.4,14.0,80,29.48,1.8,NW,26.5,39.1,0.00,Snow,Light Snow,310,2013-01-11 09:14:00
2:29 AM,17.6,14.0,86,29.48,2.0,NW,29.9,38.0,0.00,Snow,Light Snow,310,2013-01-11 09:29:00
2:39 AM,17.6,14.0,86,29.48,1.8,NW,28.8,40.3,0.00,Snow,Light Snow,310,2013-01-11 09:39:00
2:53 AM,18.0,12.9,81,29.56,2.0,NW,28.8,38.0,0.00,Snow,Light Snow,310,2013-01-11 09:53:00
3:03 AM,17.6,14.0,86,29.49,1.5,NW,29.9,35.7,0.00,Snow,Light Snow,320,2013-01-11 10:03:00
3:15 AM,17.6,14.0,86,29.49,1.0,NW,26.5,34.5,0.00,Snow,Light Snow,320,2013-01-11 10:15:00
3:18 AM,17.6,14.0,86,29.49,0.8,NW,25.3,33.4,0.00,Snow,Light Snow,320,2013-01-11 10:18:00
3:36 AM,17.6,14.0,86,29.49,1.0,NW,25.3,34.5,0.00,Snow,Light Snow,320,2013-01-11 10:36:00
3:53 AM,18.0,14.0,84,29.57,2.0,NW,25.3,32.2,0.00,Snow,Light Snow,310,2013-01-11 10:53:00
4:12 AM,17.6,12.2,79,29.49,1.2,NW,27.6,35.7,0.00,Snow,Light Snow,320,2013-01-11 11:12:00
4:23 AM,17.6,12.2,79,29.50,1.0,NNW,31.1,38.0,0.00,Snow,Light Snow,330,2013-01-11 11:23:00
4:31 AM,17.6,12.2,79,29.50,0.8,NNW,23.0,36.8,0.00,Snow,Light Snow,330,2013-01-11 11:31:00
4:38 AM,17.6,12.2,79,29.51,0.8,NW,23.0,34.5,0.00,Snow,Light Snow,320,2013-01-11 11:38:00
4:45 AM,15.8,12.2,86,29.51,0.8,NW,20.7,32.2,0.00,Snow,Light Snow,320,2013-01-11 11:45:00
4:53 AM,15.1,12.0,88,29.59,0.5,NW,23.0,29.9,0.00,Fog-Snow,Snow,310,2013-01-11 11:53:00
5:03 AM,15.8,12.2,86,29.50,1.0,NW,24.2,29.9,0.00,Snow,Light Snow,320,2013-01-11 12:03:00
5:16 AM,15.8,10.4,79,29.51,1.2,NW,26.5,-,0.00,Snow,Light Snow,320,2013-01-11 12:16:00
5:27 AM,15.8,10.4,79,29.52,1.8,NW,24.2,32.2,0.00,Snow,Light Snow,320,2013-01-11 12:27:00
5:53 AM,14.0,10.0,84,29.63,1.2,NW,27.6,34.5,0.00,Snow,Light Snow,320,2013-01-11 12:53:00
6:06 AM,14.0,8.6,79,29.53,0.8,NW,28.8,33.4,0.00,Snow,Light Snow,320,2013-01-11 13:06:00
6:22 AM,14.0,8.6,79,29.54,1.0,NW,28.8,34.5,0.00,Snow,Light Snow,320,2013-01-11 13:22:00
6:40 AM,12.2,8.6,85,29.55,0.8,NW,28.8,39.1,0.00,Snow,Light Snow,320,2013-01-11 13:40:00
6:51 AM,12.2,8.6,85,29.55,1.0,NW,27.6,34.5,0.00,Snow,Light Snow,320,2013-01-11 13:51:00
6:53 AM,12.9,8.1,81,29.66,1.0,NW,27.6,-,0.00,Snow,Light Snow,320,2013-01-11 13:53:00
7:00 AM,12.2,8.6,85,29.55,1.2,NW,28.8,34.5,0.00,Snow,Light Snow,320,2013-01-11 14:00:00
7:32 AM,14.0,6.8,73,29.56,2.5,NW,27.6,32.2,0.00,Snow,Light Snow,320,2013-01-11 14:32:00
7:39 AM,14.0,6.8,73,29.57,4.0,NNW,27.6,33.4,0.00,Snow,Light Snow,330,2013-01-11 14:39:00
7:53 AM,15.1,6.1,68,29.69,5.0,NNW,28.8,34.5,0.00,,Overcast,330,2013-01-11 14:53:00
8:53 AM,12.9,3.0,65,29.73,5.0,NNW,29.9,41.4,0.00,Snow,Blowing Snow,330,2013-01-11 15:53:00
9:53 AM,12.0,1.9,64,29.78,10.0,NNW,20.7,35.7,N/A,,Overcast,330,2013-01-11 16:53:00
10:53 AM,12.9,1.0,59,29.82,6.0,NW,25.3,34.5,0.00,Snow,Light Snow,320,2013-01-11 17:53:00
11:53 AM,12.9,1.0,59,29.85,6.0,NW,26.5,33.4,0.00,,Overcast,310,2013-01-11 18:53:00
12:01 PM,12.2,1.4,62,29.70,3.0,NW,24.2,32.2,0.00,Snow,Light Snow,320,2013-01-11 19:01:00
12:06 PM,12.2,3.2,67,29.70,1.8,NNW,25.3,33.4,0.00,Snow,Light Snow,330,2013-01-11 19:06:00
12:17 PM,12.2,5.0,73,29.70,1.0,NNW,27.6,35.7,0.00,Snow,Light Snow,330,2013-01-11 19:17:00
12:30 PM,12.2,3.2,67,29.71,2.0,NNW,24.2,33.4,0.00,Snow,Light Snow,330,2013-01-11 19:30:00
12:34 PM,12.2,3.2,67,29.71,3.0,NNW,26.5,32.2,0.00,Snow,Light Snow,330,2013-01-11 19:34:00
12:49 PM,12.2,3.2,67,29.71,1.8,NNW,26.5,33.4,0.00,Snow,Light Snow,330,2013-01-11 19:49:00
1:05 PM,12.2,1.4,62,29.71,6.0,NNW,25.3,-,0.00,,Haze,330,2013-01-11 20:05:00
1:53 PM,10.9,1.9,67,29.90,9.0,NNW,29.9,38.0,0.00,,Overcast,330,2013-01-11 20:53:00
2:53 PM,10.9,-0.0,61,29.94,10.0,NNW,20.7,29.9,N/A,,Mostly Cloudy,330,2013-01-11 21:53:00
3:53 PM,10.9,-2.9,54,29.98,10.0,NW,21.9,31.1,N/A,,Partly Cloudy,320,2013-01-11 22:53:00
4:53 PM,10.0,-4.0,53,30.02,10.0,NW,23.0,-,N/A,,Clear,320,2013-01-11 23:53:00
5:53 PM,9.0,-2.9,59,30.06,10.0,NW,25.3,32.2,N/A,,Clear,320,2013-01-12 00:53:00
6:53 PM,10.0,-2.9,56,30.10,10.0,NW,23.0,28.8,N/A,,Overcast,320,2013-01-12 01:53:00
7:50 PM,8.6,-0.4,67,29.92,2.5,NW,24.2,38.0,0.00,Snow,Light Snow,320,2013-01-12 02:50:00
7:53 PM,9.0,1.0,70,30.12,2.5,NW,25.3,38.0,0.00,Snow,Light Snow,310,2013-01-12 02:53:00
8:02 PM,8.6,1.4,73,29.92,4.0,NW,28.8,34.5,0.00,Snow,Light Snow,320,2013-01-12 03:02:00
8:53 PM,9.0,-0.9,64,30.14,10.0,NNW,26.5,38.0,0.00,,Overcast,330,2013-01-12 03:53:00
9:53 PM,8.1,-0.9,67,30.16,10.0,NW,28.8,38.0,N/A,,Overcast,320,2013-01-12 04:53:00
10:53 PM,7.0,-0.0,73,30.18,6.0,NNW,25.3,31.1,0.00,Snow,Light Snow,330,2013-01-12 05:53:00
11:14 PM,6.8,-0.4,72,29.97,2.0,NNW,26.5,33.4,0.00,Snow,Light Snow,330,2013-01-12 06:14:00
11:53 PM,7.0,-0.0,73,30.20,2.0,NNW,18.4,29.9,0.00,Snow,Light Snow,340,2013-01-12 06:53:00